| time (UTC) | temp F | wind direction | speed MPH | gust MPH | rain 1hr in | rain 24hr in | rain mn in | humidity % | barometer mb |
| 20260508200206 | 68 | 285 | 5.0 | 12.0 | 0.00 | 0.00 | 0.00 | 22 | |
| 20260508195206 | 68 | 235 | 6.0 | 15.0 | 0.00 | 0.00 | 0.00 | 21 | |
| 20260508194205 | 69 | 298 | 4.0 | 9.0 | 0.00 | 0.00 | 0.00 | 22 | |
| 20260508193206 | 68 | 298 | 6.0 | 16.0 | 0.00 | 0.00 | 0.00 | 22 | |
| 20260508192205 | 68 | 244 | 7.0 | 14.0 | 0.00 | 0.00 | 0.00 | 21 | |
| 20260508191206 | 68 | 287 | 5.0 | 14.0 | 0.00 | 0.00 | 0.00 | 20 | |
| 20260508190206 | 68 | 226 | 5.0 | 14.0 | 0.00 | 0.00 | 0.00 | 22 | |
| 20260508185205 | 69 | 238 | 5.0 | 12.0 | 0.00 | 0.00 | 0.00 | 23 | |
| 20260508184205 | 68 | 255 | 3.0 | 12.0 | 0.00 | 0.00 | 0.00 | 24 | |
| 20260508183206 | 67 | 297 | 7.0 | 17.0 | 0.00 | 0.00 | 0.00 | 22 | |
| 20260508182206 | 68 | 335 | 4.0 | 12.0 | 0.00 | 0.00 | 0.00 | 21 | |
| 20260508181206 | 68 | 290 | 3.0 | 15.0 | 0.00 | 0.00 | 0.00 | 23 | |
| 20260508180206 | 67 | 239 | 6.0 | 14.0 | 0.00 | 0.00 | 0.00 | 23 | |
| 20260508175206 | 66 | 324 | 3.0 | 13.0 | 0.00 | 0.00 | 0.00 | 24 | |
| 20260508174206 | 67 | 271 | 6.0 | 13.0 | 0.00 | 0.00 | 0.00 | 21 | |
| 20260508173206 | 66 | 277 | 5.0 | 13.0 | 0.00 | 0.00 | 0.00 | 23 | |
| 20260508172206 | 67 | 24 | 3.0 | 15.0 | 0.00 | 0.00 | 0.00 | 22 | |
| 20260508171206 | 65 | 212 | 2.0 | 8.0 | 0.00 | 0.00 | 0.00 | 22 | |
| 20260508170206 | 65 | 281 | 6.0 | 13.0 | 0.00 | 0.00 | 0.00 | 21 | |
| 20260508165206 | 65 | 177 | 5.0 | 10.0 | 0.00 | 0.00 | 0.00 | 22 | |
| 20260508162206 | 63 | 288 | 6.0 | 10.0 | 0.00 | 0.00 | 0.00 | 26 | |
| 20260508161206 | 63 | 241 | 4.0 | 13.0 | 0.00 | 0.00 | 0.00 | 25 | |
| 20260508160205 | 63 | 238 | 5.0 | 10.0 | 0.00 | 0.00 | 0.00 | 26 | |
| 20260508155206 | 62 | 239 | 5.0 | 13.0 | 0.00 | 0.00 | 0.00 | 27 | |
| 20260508154206 | 62 | 250 | 5.0 | 10.0 | 0.00 | 0.00 | 0.00 | 26 | |
| 20260508153206 | 62 | 227 | 6.0 | 10.0 | 0.00 | 0.00 | 0.00 | 28 | |
| 20260508152205 | 61 | 280 | 4.0 | 8.0 | 0.00 | 0.00 | 0.00 | 30 | |
| 20260508151206 | 60 | 257 | 5.0 | 12.0 | 0.00 | 0.00 | 0.00 | 28 | |
| 20260508150206 | 61 | 220 | 5.0 | 9.0 | 0.00 | 0.00 | 0.00 | 33 | |
| 20260508145206 | 60 | 218 | 3.0 | 10.0 | 0.00 | 0.00 | 0.00 | 33 | |
| 20260508143206 | 60 | 203 | 5.0 | 9.0 | 0.00 | 0.00 | 0.00 | 32 | |
| 20260508142206 | 59 | 200 | 2.0 | 6.0 | 0.00 | 0.00 | 0.00 | 37 | |
| 20260508141206 | 57 | 196 | 3.0 | 9.0 | 0.00 | 0.00 | 0.00 | 40 | |
| 20260508140205 | 56 | 219 | 2.0 | 7.0 | 0.00 | 0.00 | 0.00 | 42 | |
| 20260508135206 | 55 | 233 | 4.0 | 9.0 | 0.00 | 0.00 | 0.00 | 46 | |
| 20260508134205 | 54 | 201 | 2.0 | 9.0 | 0.00 | 0.00 | 0.00 | 48 | |
| 20260508133206 | 53 | 225 | 4.0 | 8.0 | 0.00 | 0.00 | 0.00 | 49 | |
| 20260508132205 | 51 | 255 | 3.0 | 8.0 | 0.00 | 0.00 | 0.00 | 51 | |
| 20260508131205 | 50 | 226 | 4.0 | 8.0 | 0.00 | 0.00 | 0.00 | 53 | |
| 20260508130206 | 49 | 231 | 6.0 | 9.0 | 0.00 | 0.00 | 0.00 | 55 | |
| 20260508125206 | 48 | 230 | 5.0 | 8.0 | 0.00 | 0.00 | 0.00 | 58 | |
| 20260508124206 | 47 | 229 | 3.0 | 7.0 | 0.00 | 0.00 | 0.00 | 62 | |
| 20260508123209 | 46 | 234 | 3.0 | 7.0 | 0.00 | 0.00 | 0.00 | 62 | |
| 20260508122206 | 46 | 237 | 3.0 | 7.0 | 0.00 | 0.00 | 0.00 | 64 | |
| 20260508120206 | 45 | 240 | 2.0 | 7.0 | 0.00 | 0.00 | 0.00 | 66 | |
| 20260508115205 | 44 | 240 | 3.0 | 7.0 | 0.00 | 0.00 | 0.00 | 67 | |
| 20260508114205 | 43 | 169 | 1.0 | 5.0 | 0.00 | 0.00 | 0.00 | 68 | |
| 20260508113205 | 42 | 203 | 1.0 | 5.0 | 0.00 | 0.00 | 0.00 | 70 | |
| 20260508112206 | 42 | 343 | 0.0 | 2.0 | 0.00 | 0.00 | 0.00 | 70 | |
| 20260508111205 | 41 | 29 | 0.0 | 1.0 | 0.00 | 0.00 | 0.00 | 71 | |
| 20260508110206 | 41 | 59 | 0.0 | 2.0 | 0.00 | 0.00 | 0.00 | 71 | |
| 20260508105206 | 41 | 201 | 0.0 | 2.0 | 0.00 | 0.00 | 0.00 | 70 | |
| 20260508104206 | 41 | 50 | 0.0 | 2.0 | 0.00 | 0.00 | 0.00 | 69 | |
| 20260508103206 | 41 | 229 | 0.0 | 1.0 | 0.00 | 0.00 | 0.00 | 68 | |
| 20260508102205 | 41 | 26 | 1.0 | 2.0 | 0.00 | 0.00 | 0.00 | 67 | |
| 20260508100206 | 42 | 105 | 0.0 | 1.0 | 0.00 | 0.00 | 0.00 | 64 | |
| 20260508095205 | 42 | 133 | 0.0 | 3.0 | 0.00 | 0.00 | 0.00 | 64 | |
| 20260508094206 | 42 | 240 | 1.0 | 5.0 | 0.00 | 0.00 | 0.00 | 64 | |
| 20260508093206 | 42 | 36 | 0.0 | 1.0 | 0.00 | 0.00 | 0.00 | 61 | |
| 20260508092205 | 43 | 302 | 0.0 | 1.0 | 0.00 | 0.00 | 0.00 | 61 | |
| 20260508091206 | 43 | 67 | 0.0 | 0.0 | 0.00 | 0.00 | 0.00 | 60 | |
| 20260508090206 | 43 | 67 | 0.0 | 1.0 | 0.00 | 0.00 | 0.00 | 59 | |
| 20260508085206 | 43 | 81 | 0.0 | 0.0 | 0.00 | 0.00 | 0.00 | 59 | |
| 20260508083209 | 42 | 33 | 0.0 | 0.0 | 0.00 | 0.00 | 0.00 | 60 | |
| 20260508081206 | 41 | 54 | 0.0 | 1.0 | 0.00 | 0.00 | 0.00 | 61 | |
| 20260508080206 | 42 | 60 | 0.0 | 1.0 | 0.00 | 0.00 | 0.00 | 61 | |
| 20260508075206 | 42 | 21 | 0.0 | 1.0 | 0.00 | 0.00 | 0.00 | 60 | |
| 20260508074205 | 41 | 38 | 1.0 | 2.0 | 0.00 | 0.00 | 0.00 | 61 | |
| 20260508072205 | 41 | 252 | 0.0 | 1.0 | 0.00 | 0.00 | 0.00 | 62 | |
| 20260508071206 | 41 | 215 | 0.0 | 0.0 | 0.00 | 0.00 | 0.00 | 61 | |
| 20260508070205 | 41 | 215 | 0.0 | 0.0 | 0.00 | 0.00 | 0.00 | 60 | |
| 20260508065206 | 42 | 215 | 0.0 | 0.0 | 0.00 | 0.00 | 0.00 | 59 | |
| 20260508064205 | 42 | 215 | 0.0 | 0.0 | 0.00 | 0.00 | 0.00 | 58 | |
| 20260508063206 | 42 | 215 | 0.0 | 2.0 | 0.00 | 0.00 | 0.00 | 56 | |
| 20260508062206 | 42 | 199 | 0.0 | 0.0 | 0.00 | 0.00 | 0.00 | 56 | |
| 20260508061205 | 43 | 207 | 0.0 | 1.0 | 0.00 | 0.00 | 0.00 | 55 | |
| 20260508060206 | 45 | 103 | 0.0 | 1.0 | 0.00 | 0.00 | 0.00 | 52 | |
| 20260508055206 | 45 | 79 | 0.0 | 0.0 | 0.00 | 0.00 | 0.00 | 50 | |
| 20260508054206 | 45 | 79 | 0.0 | 1.0 | 0.00 | 0.00 | 0.00 | 49 | |
| 20260508053206 | 46 | 137 | 1.0 | 2.0 | 0.00 | 0.00 | 0.00 | 48 | |
| 20260508052206 | 47 | 109 | 1.0 | 5.0 | 0.00 | 0.00 | 0.00 | 46 | |
| 20260508051206 | 47 | 98 | 2.0 | 5.0 | 0.00 | 0.00 | 0.00 | 45 | |
| 20260508050206 | 48 | 93 | 2.0 | 5.0 | 0.00 | 0.00 | 0.00 | 45 | |
| 20260508045206 | 48 | 93 | 2.0 | 5.0 | 0.00 | 0.00 | 0.00 | 44 | |
| 20260508044206 | 48 | 48 | 2.0 | 5.0 | 0.00 | 0.00 | 0.00 | 44 | |
| 20260508043209 | 47 | 99 | 1.0 | 6.0 | 0.00 | 0.00 | 0.00 | 45 | |
| 20260508042206 | 47 | 23 | 0.0 | 2.0 | 0.00 | 0.00 | 0.00 | 46 | |
| 20260508041206 | 47 | 41 | 1.0 | 3.0 | 0.00 | 0.00 | 0.00 | 45 | |
| 20260508040206 | 47 | 43 | 0.0 | 3.0 | 0.00 | 0.00 | 0.00 | 46 | |
| 20260508035206 | 47 | 28 | 0.0 | 5.0 | 0.00 | 0.00 | 0.00 | 48 | |
| 20260508034206 | 47 | 26 | 1.0 | 1.0 | 0.00 | 0.00 | 0.00 | 51 | |
| 20260508033206 | 47 | 352 | 0.0 | 0.0 | 0.00 | 0.00 | 0.00 | 50 | |
| 20260508032206 | 48 | 352 | 0.0 | 0.0 | 0.00 | 0.00 | 0.00 | 48 | |
| 20260508031206 | 48 | 352 | 0.0 | 0.0 | 0.00 | 0.00 | 0.00 | 48 | |
| 20260508030206 | 48 | 352 | 0.0 | 0.0 | 0.00 | 0.00 | 0.00 | 47 | |
| 20260508025206 | 49 | 352 | 0.0 | 1.0 | 0.00 | 0.00 | 0.00 | 47 | |
| 20260508024206 | 49 | 328 | 0.0 | 1.0 | 0.00 | 0.00 | 0.00 | 48 | |
| 20260508023206 | 49 | 16 | 0.0 | 0.0 | 0.00 | 0.00 | 0.00 | 48 | |
| 20260508022206 | 49 | 16 | 0.0 | 0.0 | 0.00 | 0.00 | 0.00 | 48 | |
| 20260508021206 | 50 | 16 | 0.0 | 1.0 | 0.00 | 0.00 | 0.00 | 47 | |
| 20260508020207 | 50 | 318 | 0.0 | 0.0 | 0.00 | 0.00 | 0.00 | 46 | |
| 20260508015206 | 51 | 318 | 0.0 | 2.0 | 0.00 | 0.00 | 0.00 | 44 | |
| 20260508014206 | 53 | 325 | 0.0 | 1.0 | 0.00 | 0.00 | 0.00 | 43 | |
| 20260508013206 | 54 | 355 | 0.0 | 2.0 | 0.00 | 0.00 | 0.00 | 40 | |
| 20260508012206 | 55 | 334 | 0.0 | 2.0 | 0.00 | 0.00 | 0.00 | 38 | |
| 20260508011206 | 56 | 261 | 0.0 | 3.0 | 0.00 | 0.00 | 0.00 | 35 | |
| 20260508010206 | 56 | 315 | 1.0 | 6.0 | 0.00 | 0.00 | 0.00 | 35 | |
| 20260508005206 | 57 | 349 | 2.0 | 7.0 | 0.00 | 0.00 | 0.00 | 34 | |
| 20260508004206 | 57 | 315 | 3.0 | 10.0 | 0.00 | 0.00 | 0.00 | 32 | |
| 20260508003209 | 57 | 329 | 5.0 | 10.0 | 0.00 | 0.00 | 0.00 | 32 | |
| 20260508002205 | 58 | 324 | 5.0 | 12.0 | 0.00 | 0.00 | 0.00 | 30 | |
| 20260508001205 | 59 | 269 | 5.0 | 10.0 | 0.00 | 0.00 | 0.00 | 31 | |
| 20260508000206 | 59 | 283 | 6.0 | 12.0 | 0.00 | 0.00 | 0.00 | 31 | |
| 20260507235205 | 59 | 269 | 4.0 | 13.0 | 0.00 | 0.00 | 0.00 | 30 | |
| 20260507234206 | 59 | 299 | 5.0 | 13.0 | 0.00 | 0.00 | 0.00 | 30 | |
| 20260507233206 | 59 | 313 | 7.0 | 16.0 | 0.00 | 0.00 | 0.00 | 30 | |
| 20260507232206 | 59 | 330 | 8.0 | 16.0 | 0.00 | 0.00 | 0.00 | 28 | |
| 20260507231206 | 60 | 347 | 6.0 | 20.0 | 0.00 | 0.00 | 0.00 | 27 | |
| 20260507230206 | 59 | 303 | 7.0 | 14.0 | 0.00 | 0.00 | 0.00 | 27 | |
| 20260507225206 | 60 | 309 | 10.0 | 17.0 | 0.00 | 0.00 | 0.00 | 27 | |
| 20260507224206 | 60 | 4 | 5.0 | 15.0 | 0.00 | 0.00 | 0.00 | 29 | |
| 20260507223205 | 60 | 14 | 6.0 | 20.0 | 0.00 | 0.00 | 0.00 | 30 | |
| 20260507222205 | 60 | 302 | 7.0 | 18.0 | 0.00 | 0.00 | 0.00 | 30 | |
| 20260507221206 | 61 | 4 | 4.0 | 14.0 | 0.00 | 0.00 | 0.00 | 33 | |
| 20260507220205 | 60 | 338 | 6.0 | 18.0 | 0.00 | 0.00 | 0.00 | 30 | |
| 20260507215205 | 60 | 325 | 6.0 | 15.0 | 0.00 | 0.00 | 0.00 | 31 | |
| 20260507214205 | 60 | 320 | 6.0 | 15.0 | 0.00 | 0.00 | 0.00 | 33 | |
| 20260507213206 | 60 | 292 | 4.0 | 15.0 | 0.00 | 0.00 | 0.00 | 33 | |
| 20260507212206 | 60 | 277 | 5.0 | 14.0 | 0.00 | 0.00 | 0.00 | 34 | |
| 20260507211206 | 60 | 345 | 6.0 | 16.0 | 0.00 | 0.00 | 0.00 | 34 | |
| 20260507210206 | 60 | 313 | 5.0 | 14.0 | 0.00 | 0.00 | 0.00 | 34 | |
| 20260507205205 | 59 | 328 | 6.0 | 16.0 | 0.00 | 0.00 | 0.00 | 34 | |
| 20260507204205 | 61 | 313 | 6.0 | 16.0 | 0.00 | 0.00 | 0.00 | 34 | |
| 20260507203208 | 60 | 315 | 5.0 | 14.0 | 0.00 | 0.00 | 0.00 | 35 | |
| 20260507202206 | 58 | 308 | 6.0 | 12.0 | 0.00 | 0.00 | 0.00 | 38 | |
| 20260507201206 | 57 | 302 | 8.0 | 17.0 | 0.00 | 0.00 | 0.00 | 39 |